Flag for India Weather past 2 weeks in Chennai, Tamil Nadu, India

Now
79 °F

Partly cloudy.


Feels Like: 81 °F
Forecast: 75 / 86 °F
Wind: 9 mph from Northeast

Location: Madras / Minambakkam

Current Time: Dec 20, 2014 at 1:59:07 AM

Latest Report: Dec 20, 2014 at 1:10 AM


Visibility: 4 mi

Pressure: 29.98 "Hg

Humidity: 61%

Dew point: 64 °F

Location of ChennaiLocation

Historic Weather in Chennai — Graph

°F

Chennai temperature yesterday

Maximum temperature yesterday: 84 °F (at 9:40 AM)
Minimum temperature yesterday: 77 °F (at 11:10 PM)
Average temperature yesterday: 80 °F

Past Weeks' High & Low Weather Summary

 TemperatureHumidityPressure
High90 °F (Dec 9, 12:40 PM)100% (Dec 9, 4:40 AM)30.04 "Hg (Dec 9, 4:40 AM)
Low68 °F (Dec 5, 6:10 AM)49% (Dec 5, 11:40 AM)29.83 "Hg (Dec 6, 3:10 PM)
Average79 °F83%29.91 "Hg
* Reported Dec 5 12:40 AM — Dec 20 12:40 AM, Chennai, Weather by CustomWeather, © 2014

Note: Actual official high and low records may vary slightly from our data, if they occured in-between our weather recording intervals... More about our weather records

Advertising

Chennai weather history for previous 24 hours

 ConditionsComfort  
Time TempWeatherWind HumidityBarometerVisibility
12:40 AM
Dec 20
79 °FPartly cloudy.8 mph65%29.98 "Hg4 mi
12:10 AM79 °FPartly cloudy.8 mph65%29.98 "Hg4 mi
11:40 PM
Dec 19
77 °FPartly cloudy.8 mph69%30.01 "Hg4 mi
11:10 PM77 °FPartly cloudy.7 mph69%30.01 "Hg4 mi
10:40 PM79 °FPartly cloudy.7 mph65%30.01 "Hg4 mi
9:40 PM79 °FPartly cloudy.9 mph65%30.04 "Hg4 mi
9:10 PM79 °FPartly cloudy.12 mph65%30.04 "Hg4 mi
8:40 PM79 °FPartly cloudy.9 mph65%30.01 "Hg4 mi
8:10 PM79 °FPassing clouds.9 mph65%30.01 "Hg4 mi
7:40 PM79 °FPassing clouds.8 mph65%30.01 "Hg4 mi
7:10 PM79 °FPassing clouds.12 mph65%29.98 "Hg4 mi
6:40 PM79 °FPassing clouds.10 mph70%29.98 "Hg4 mi
6:10 PM79 °FScattered clouds.12 mph70%29.98 "Hg4 mi
5:40 PM79 °FScattered clouds.12 mph70%29.95 "Hg4 mi
5:10 PM79 °FScattered clouds.12 mph70%29.95 "Hg4 mi
4:40 PM81 °FScattered clouds.14 mph66%29.95 "Hg4 mi
4:10 PM81 °FScattered clouds.14 mph70%29.92 "Hg4 mi
3:40 PM81 °FScattered clouds.14 mph70%29.92 "Hg4 mi
3:10 PM81 °FScattered clouds.14 mph70%29.92 "Hg4 mi
1:40 PM82 °FScattered clouds.12 mph70%29.95 "Hg4 mi
1:10 PM81 °FScattered clouds.12 mph70%29.98 "Hg4 mi
12:40 PM82 °FScattered clouds.12 mph66%29.98 "Hg4 mi
12:10 PM82 °FScattered clouds.12 mph70%29.98 "Hg4 mi
11:40 AM82 °FScattered clouds.12 mph70%30.01 "Hg4 mi
11:10 AM84 °FScattered clouds.12 mph66%30.01 "Hg4 mi
10:40 AM84 °FScattered clouds.12 mph66%30.04 "Hg4 mi
10:10 AM82 °FScattered clouds.9 mph66%30.04 "Hg4 mi
9:40 AM84 °FScattered clouds.9 mph66%30.04 "Hg4 mi
9:10 AM82 °FScattered clouds.12 mph70%30.04 "Hg4 mi
8:40 AM81 °FScattered clouds.9 mph70%30.04 "Hg3 mi
7:40 AM81 °FScattered clouds.9 mph74%30.01 "Hg2 mi
7:10 AM79 °FFog.12 mph79%29.98 "Hg2 mi
5:40 AM79 °FPassing clouds.7 mph79%29.95 "Hg4 mi
5:10 AM79 °FPassing clouds.9 mph79%29.95 "Hg4 mi
4:40 AM79 °FPassing clouds.7 mph84%29.95 "Hg4 mi
4:10 AM79 °FPassing clouds.8 mph84%29.92 "Hg4 mi
3:40 AM79 °FPassing clouds.8 mph79%29.92 "Hg4 mi
2:40 AM79 °FPassing clouds.12 mph79%29.92 "Hg4 mi
1:40 AM79 °FPassing clouds.14 mph79%29.95 "Hg4 mi
1:10 AM79 °FPassing clouds.14 mph79%29.95 "Hg4 mi
Weather by CustomWeather, © 2014

See weather overviewHow to use our weather pages